FW6247 Weather Reports


Display with metric or nautical units.
time (UTC)temp
F
wind
direction
speed
MPH
gust
MPH
rain 1hr
in
rain 24hr
in
rain mn
in
humidity
%
barometer
mb
20260510174529 63 355 0.0 3.0 0.00 0.00 0.00 56 1018.2
20260510173031 63 325 0.0 4.0 0.00 0.00 0.00 56 1018.2
20260510171528 63 334 0.0 5.0 0.00 0.00 0.00 56 1018.1
20260510170029 62 358 0.0 5.0 0.00 0.00 0.00 57 1018.2
20260510164649 62 45 0.0 0.0 0.00 0.00 0.00 58 1018.1
20260510163030 60 45 0.0 0.0 0.00 0.00 0.00 59 1018.1
20260510161531 59 45 0.0 0.0 0.00 0.00 0.00 61 1018.2
20260510160028 59 45 0.0 0.0 0.00 0.00 0.00 62 1018.0
20260510154532 59 54 0.0 0.0 0.00 0.00 0.00 63 1017.9
20260510153030 57 151 0.0 0.0 0.00 0.00 0.00 68 1017.9
20260510151531 56 157 0.0 0.0 0.00 0.00 0.00 70 1018.1
20260510150028 54 157 0.0 3.0 0.00 0.00 0.00 68 1017.8
20260510143032 53 157 0.0 4.0 0.00 0.00 0.00 68 1017.6
20260510141531 51 158 2.0 7.0 0.00 0.00 0.00 67 1017.6
20260510140105 50 178 3.0 5.0 0.00 0.00 0.00 67 1017.8
20260510134539 49 175 0.0 3.0 0.00 0.00 0.00 66 1017.5
20260510133034 48 171 4.0 7.0 0.00 0.00 0.00 67 1017.6
20260510131536 48 139 1.0 5.0 0.00 0.00 0.00 67 1017.5
20260510130032 48 138 0.0 1.0 0.00 0.00 0.00 66 1017.6
20260510124529 48 158 4.0 6.0 0.00 0.00 0.00 64 1017.8
20260510123037 49 167 3.0 7.0 0.00 0.00 0.00 64 1017.6
20260510121530 49 166 5.0 7.0 0.00 0.00 0.00 64 1017.4
20260510113031 49 164 5.0 9.0 0.00 0.00 0.00 64 1017.3
20260510110105 49 157 4.0 6.0 0.00 0.00 0.00 63 1017.6
20260510104528 49 162 4.0 7.0 0.00 0.00 0.00 62 1017.5
20260510103030 50 166 2.0 5.0 0.00 0.00 0.00 61 1017.5
20260510100031 51 164 6.0 8.0 0.00 0.00 0.00 59 1017.4
20260510093037 52 160 5.0 8.0 0.00 0.00 0.00 59 1017.6
20260510091530 52 159 4.0 7.0 0.00 0.00 0.00 59 1017.8
20260510090031 52 160 5.0 8.0 0.00 0.00 0.00 59 1018.1
20260510084531 51 160 4.0 7.0 0.00 0.00 0.00 60 1018.1
20260510083030 50 159 4.0 7.0 0.00 0.00 0.00 63 1018.2
20260510081529 50 246 1.0 7.0 0.00 0.00 0.00 63 1018.2
20260510080034 51 275 0.0 4.0 0.00 0.00 0.00 63 1018.2
20260510074538 51 108 1.0 4.0 0.00 0.00 0.00 63 1018.2
20260510073031 52 118 0.0 2.0 0.00 0.00 0.00 61 1018.2
20260510070029 53 157 3.0 5.0 0.00 0.00 0.00 58 1018.2
20260510063038 54 158 4.0 5.0 0.00 0.00 0.00 59 1018.1
20260510061606 54 157 4.0 6.0 0.00 0.00 0.00 59 1018.1
20260510060031 53 158 4.0 6.0 0.00 0.00 0.00 59 1018.2
20260510054537 54 168 2.0 4.0 0.00 0.00 0.00 57 1018.1
20260510053031 55 157 2.0 5.0 0.00 0.00 0.00 57 1018.0
20260510044535 55 168 3.0 5.0 0.00 0.00 0.00 56 1018.0
20260510043038 56 176 2.0 3.0 0.00 0.00 0.00 54 1018.1
20260510041603 57 181 1.0 4.0 0.00 0.00 0.00 52 1017.8
20260510040030 58 67 0.0 0.0 0.00 0.00 0.00 50 1017.6
20260510034606 61 67 0.0 0.0 0.00 0.00 0.00 45 1017.6
20260510033030 64 67 0.0 0.0 0.00 0.00 0.00 38 1017.6
20260510031529 66 64 0.0 2.0 0.00 0.00 0.00 34 1017.5
20260510030030 67 45 0.0 2.0 0.00 0.00 0.00 33 1017.4
20260510024533 67 45 0.0 3.0 0.00 0.00 0.00 33 1017.4
20260510023105 69 45 0.0 2.0 0.00 0.00 0.00 31 1017.4
20260510021529 72 45 0.0 2.0 0.00 0.00 0.00 30 1017.5
20260510014530 75 23 0.0 3.0 0.00 0.00 0.00 29 1017.7
20260510013030 77 7 0.0 4.0 0.00 0.00 0.00 30 1017.8
20260510011604 77 35 1.0 5.0 0.00 0.00 0.00 29 1017.8
20260510010026 78 20 1.0 6.0 0.00 0.00 0.00 29 1018.0
20260510004529 78 13 1.0 7.0 0.00 0.00 0.00 27 1017.9
20260510000031 78 344 1.0 8.0 0.00 0.00 0.00 28 1018.3
20260509234529 78 355 2.0 7.0 0.00 0.00 0.00 29 1018.5
20260509233030 77 1 2.0 7.0 0.00 0.00 0.00 29 1018.6
20260509231530 77 356 1.0 9.0 0.00 0.00 0.00 31 1018.8
20260509230029 77 16 1.0 8.0 0.00 0.00 0.00 31 1019.0
20260509224530 76 23 2.0 8.0 0.00 0.00 0.00 32 1019.3
20260509223031 76 13 1.0 5.0 0.00 0.00 0.00 33 1019.5
20260509221531 76 17 1.0 9.0 0.00 0.00 0.00 34 1019.7
20260509220032 75 350 1.0 6.0 0.00 0.00 0.00 36 1019.9
20260509214528 74 3 1.0 8.0 0.00 0.00 0.00 35 1020.0
20260509213102 74 17 2.0 8.0 0.00 0.00 0.00 37 1020.3
20260509210032 73 13 1.0 7.0 0.00 0.00 0.00 41 1020.7
20260509204532 73 27 2.0 8.0 0.00 0.00 0.00 39 1020.8
20260509203031 73 6 2.0 8.0 0.00 0.00 0.00 41 1021.0
20260509201532 73 14 1.0 7.0 0.00 0.00 0.00 42 1021.2
20260509200030 72 23 1.0 6.0 0.00 0.00 0.00 43 1021.5
20260509194532 71 22 1.0 5.0 0.00 0.00 0.00 43 1021.7
20260509191529 70 11 1.0 6.0 0.00 0.00 0.00 45 1022.0
20260509184606 67 23 1.0 6.0 0.00 0.00 0.00 47 1022.4
20260509183031 68 48 2.0 5.0 0.00 0.00 0.00 46 1022.5
20260509181606 68 360 1.0 6.0 0.00 0.00 0.00 47 1022.5
20260509180029 68 25 1.0 5.0 0.00 0.00 0.00 49 1022.5